DateTime,Index
2001081306,0.0
2001081312,0.0
2001081318,0.0
2001081400,0.0
2001081406,0.0
2001081412,1225.0
2001081418,1600.0
2001081500,2025.0
2001081506,2500.0
2001081512,3600.0
2001081518,3600.0
2001081600,4225.0
2001081606,4900.0
2001081612,4900.0
2001081618,5625.0
2001081700,6400.0
2001081706,6400.0
2001081712,6400.0
2001081718,6400.0
2001081800,5625.0
2001081806,5625.0
2001081812,6400.0
2001081818,7225.0
2001081900,8100.0
2001081906,8100.0
2001081912,8100.0
2001081918,8100.0
2001082000,8100.0
2001082006,6400.0
2001082012,5625.0
2001082018,4900.0
2001082100,4225.0
2001082106,3600.0
2001082112,3025.0
2001082118,2500.0
2001082200,2025.0
2001082206,1600.0
2001082212,1225.0
2001082218,0.0
2001082300,0.0
